Flag for Finland Weather past 2 weeks in Kuopio, Finland

Now
64 °F

Clear.


Feels Like: 64 °F
Forecast: 60 / 84 °F
Wind: 1 mph from North

Location: Kuopio Airport

Current Time: Jul 25, 2014 at 4:53:31 AM

Latest Report: Jul 25, 2014 at 4:20 AM


Visibility: 10 mi

Pressure: 30.15 "Hg

Humidity: 100%

Dew point: 64 °F

Location of KuopioLocation

Historic Weather in Kuopio — Graph

°F

Kuopio temperature yesterday

Maximum temperature yesterday: 81 °F (at 2:20 PM)
Minimum temperature yesterday: 64 °F (at 12:50 AM)
Average temperature yesterday: 72 °F

Past Weeks' High & Low Weather Summary

 TemperatureHumidityPressure
High84 °F (Jul 23, 3:20 PM)100% (Jul 11, 4:20 AM)30.33 "Hg (Jul 11, 4:20 AM)
Low46 °F (Jul 10, 5:50 AM)31% (Jul 11, 6:20 PM)29.89 "Hg (Jul 14, 7:20 PM)
Average68 °F70%30.12 "Hg
* Reported Jul 10 3:20 AM — Jul 25 3:20 AM, Kuopio, Weather by CustomWeather, © 2014

Note: Actual official high and low records may vary slightly from our data, if they occured in-between our weather recording intervals... More about our weather records

Advertising

Kuopio weather history for previous 24 hours

 ConditionsComfort  
Time TempWeatherWind HumidityBarometerVisibility
3:20 AM
Jul 25
64 °FClear.No wind94%30.15 "Hg10 mi
2:50 AM66 °FClear.No wind94%30.15 "Hg10 mi
2:20 AM66 °FClear.No wind94%30.15 "Hg10 mi
1:50 AM66 °FClear.1 mph94%30.15 "Hg10 mi
1:20 AM68 °FMild.2 mph88%30.15 "Hg4 mi
12:50 AM68 °FClear.1 mph88%30.15 "Hg10 mi
12:20 AM70 °FClear.2 mph88%30.15 "Hg10 mi
11:50 PM
Jul 24
70 °FClear.2 mph78%30.15 "Hg10 mi
11:20 PM70 °FSunny.2 mph83%30.15 "Hg10 mi
10:50 PM72 °FSunny.3 mph73%30.15 "Hg10 mi
10:20 PM72 °FSunny.2 mph73%30.15 "Hg10 mi
9:50 PM73 °FSunny.2 mph74%30.15 "Hg10 mi
9:20 PM75 °FSunny.2 mph65%30.15 "Hg10 mi
8:50 PM77 °FSunny.3 mph61%30.15 "Hg10 mi
8:20 PM75 °FSunny.3 mph65%30.15 "Hg10 mi
7:50 PM77 °FSunny.3 mph61%30.15 "Hg10 mi
7:20 PM77 °FSunny.6 mph61%30.15 "Hg10 mi
6:50 PM77 °FPassing clouds.3 mph61%30.15 "HgN/A
6:20 PM77 °FPassing clouds.3 mph57%30.15 "HgN/A
5:50 PM79 °FSunny.6 mph54%30.15 "Hg10 mi
5:20 PM79 °FPassing clouds.3 mph54%30.18 "HgN/A
4:50 PM75 °FPassing clouds.6 mph61%30.18 "HgN/A
4:20 PM77 °FSunny.6 mph57%30.18 "Hg10 mi
3:50 PM77 °FScattered showers. Passing clouds.8 mph57%30.18 "HgN/A
3:20 PM79 °FScattered showers. Passing clouds.5 mph51%30.18 "HgN/A
2:50 PM81 °FWarm.5 mph45%30.18 "HgN/A
2:20 PM81 °FPassing clouds.6 mph45%30.18 "HgN/A
1:50 PM79 °FPassing clouds.6 mph51%30.18 "HgN/A
1:20 PM79 °FPassing clouds.3 mph51%30.18 "HgN/A
12:50 PM79 °FSunny.3 mph54%30.18 "Hg10 mi
12:20 PM79 °FPassing clouds.3 mph54%30.18 "HgN/A
11:50 AM77 °FPassing clouds.6 mph57%30.18 "HgN/A
11:20 AM77 °FPassing clouds.6 mph57%30.18 "HgN/A
10:50 AM75 °FSunny.6 mph65%30.18 "Hg10 mi
10:20 AM75 °FSunny.8 mph65%30.18 "Hg10 mi
9:50 AM73 °FPassing clouds.7 mph69%30.18 "HgN/A
9:20 AM72 °FPassing clouds.6 mph78%30.18 "HgN/A
8:50 AM70 °FSunny.8 mph83%30.18 "Hg10 mi
8:20 AM70 °FSunny.5 mph83%30.18 "Hg10 mi
7:50 AM70 °FSunny.6 mph83%30.18 "Hg10 mi
7:20 AM68 °FSunny.3 mph88%30.18 "Hg10 mi
6:50 AM66 °FSunny.3 mph94%30.18 "Hg10 mi
6:20 AM68 °FSunny.5 mph88%30.18 "Hg10 mi
5:50 AM66 °FSunny.2 mph94%30.18 "Hg10 mi
5:20 AM64 °FPartly sunny.1 mph100%30.18 "Hg1 mi
4:50 AM64 °FClear.2 mph100%30.18 "Hg10 mi
4:20 AM64 °FClear.2 mph94%30.18 "Hg10 mi
Weather by CustomWeather, © 2014

See weather overviewHow to use our weather pages